Information on these data can be found in provided Readme document
Contact Info: Zachary Fasnacht (zachary.fasnacht@ssaihq.com); Nickolay Krotkov (nickolay.a.krotkov@nasa.gov); Lok Lamsal (lok.lamsal@nasa.gov)

FillValue: -999.
ScaleFactor: 1e15
Units: molecules/cm^2

Date(yyyy-mm-dd),City,Country,LonCenter,LatCenter,BoundingCoordinates,Median,Q1,Q3,Mean,Baseline_Median,Baseline_Q1,Baseline_Q3,Baseline_Mean,NumGoodSamples,NumTotalSamples
2015-01-01,Mazatlan,Mexico,-106.4167,23.2001,[-106.9167 22.7001 -105.9167 23.7001],0.646,0.044,1.02,0.567,0.991,0.508,1.386,0.953,121.0,558.0
2015-01-02,Mazatlan,Mexico,-106.4167,23.2001,[-106.9167 22.7001 -105.9167 23.7001],0.726,0.29,1.131,0.675,0.971,0.522,1.363,0.929,143.0,540.0
2015-01-03,Mazatlan,Mexico,-106.4167,23.2001,[-106.9167 22.7001 -105.9167 23.7001],0.771,0.29,1.217,0.724,0.965,0.491,1.366,0.928,124.0,559.0
2015-01-04,Mazatlan,Mexico,-106.4167,23.2001,[-106.9167 22.7001 -105.9167 23.7001],0.733,0.29,1.131,0.711,0.954,0.486,1.365,0.928,149.0,547.0
2015-01-05,Mazatlan,Mexico,-106.4167,23.2001,[-106.9167 22.7001 -105.9167 23.7001],0.733,0.282,1.131,0.705,0.948,0.466,1.342,0.905,182.0,565.0
2015-01-06,Mazatlan,Mexico,-106.4167,23.2001,[-106.9167 22.7001 -105.9167 23.7001],0.733,0.339,1.184,0.726,0.949,0.443,1.371,0.91,156.0,561.0
2015-01-07,Mazatlan,Mexico,-106.4167,23.2001,[-106.9167 22.7001 -105.9167 23.7001],0.733,0.339,1.184,0.726,0.909,0.407,1.338,0.88,156.0,551.0
2015-01-08,Mazatlan,Mexico,-106.4167,23.2001,[-106.9167 22.7001 -105.9167 23.7001],0.733,0.349,1.131,0.747,0.919,0.434,1.333,0.902,146.0,565.0
2015-01-09,Mazatlan,Mexico,-106.4167,23.2001,[-106.9167 22.7001 -105.9167 23.7001],0.733,0.349,1.131,0.747,0.906,0.388,1.318,0.902,146.0,514.0
2015-01-10,Mazatlan,Mexico,-106.4167,23.2001,[-106.9167 22.7001 -105.9167 23.7001],0.725,0.339,1.217,0.756,0.897,0.403,1.333,0.908,136.0,520.0
2015-01-11,Mazatlan,Mexico,-106.4167,23.2001,[-106.9167 22.7001 -105.9167 23.7001],0.733,0.404,1.302,0.802,0.887,0.398,1.314,0.894,133.0,519.0
2015-01-12,Mazatlan,Mexico,-106.4167,23.2001,[-106.9167 22.7001 -105.9167 23.7001],0.77,0.353,1.301,0.781,0.961,0.44,1.358,0.922,123.0,536.0
2015-01-13,Mazatlan,Mexico,-106.4167,23.2001,[-106.9167 22.7001 -105.9167 23.7001],0.77,0.3,1.184,0.742,0.989,0.438,1.348,0.932,144.0,531.0
2015-01-14,Mazatlan,Mexico,-106.4167,23.2001,[-106.9167 22.7001 -105.9167 23.7001],0.757,0.29,1.184,0.729,0.996,0.46,1.345,0.943,172.0,533.0
2015-01-15,Mazatlan,Mexico,-106.4167,23.2001,[-106.9167 22.7001 -105.9167 23.7001],0.757,0.29,1.131,0.724,0.96,0.45,1.322,0.93,163.0,537.0
2015-01-16,Mazatlan,Mexico,-106.4167,23.2001,[-106.9167 22.7001 -105.9167 23.7001],0.626,0.206,1.128,0.67,0.966,0.456,1.331,0.943,186.0,519.0
2015-01-17,Mazatlan,Mexico,-106.4167,23.2001,[-106.9167 22.7001 -105.9167 23.7001],0.541,0.074,0.972,0.573,0.946,0.431,1.316,0.93,164.0,531.0
2015-01-18,Mazatlan,Mexico,-106.4167,23.2001,[-106.9167 22.7001 -105.9167 23.7001],0.541,0.074,0.972,0.573,0.976,0.457,1.347,0.953,164.0,514.0
2015-01-19,Mazatlan,Mexico,-106.4167,23.2001,[-106.9167 22.7001 -105.9167 23.7001],0.536,-0.035,1.021,0.549,0.98,0.475,1.362,0.964,135.0,535.0
2015-01-20,Mazatlan,Mexico,-106.4167,23.2001,[-106.9167 22.7001 -105.9167 23.7001],0.628,-0.059,1.045,0.563,0.975,0.483,1.375,0.962,131.0,524.0
2015-01-21,Mazatlan,Mexico,-106.4167,23.2001,[-106.9167 22.7001 -105.9167 23.7001],0.645,-0.035,1.113,0.633,0.965,0.445,1.383,0.947,165.0,539.0
2015-01-22,Mazatlan,Mexico,-106.4167,23.2001,[-106.9167 22.7001 -105.9167 23.7001],0.645,-0.035,1.113,0.633,0.957,0.479,1.408,0.96,165.0,535.0
2015-01-23,Mazatlan,Mexico,-106.4167,23.2001,[-106.9167 22.7001 -105.9167 23.7001],0.645,-0.035,1.113,0.633,0.946,0.479,1.406,0.964,165.0,525.0
2015-01-24,Mazatlan,Mexico,-106.4167,23.2001,[-106.9167 22.7001 -105.9167 23.7001],0.645,-0.035,1.113,0.633,0.942,0.488,1.401,0.95,165.0,566.0
2015-01-25,Mazatlan,Mexico,-106.4167,23.2001,[-106.9167 22.7001 -105.9167 23.7001],0.568,-0.059,1.045,0.58,0.937,0.484,1.39,0.941,173.0,543.0
2015-01-26,Mazatlan,Mexico,-106.4167,23.2001,[-106.9167 22.7001 -105.9167 23.7001],0.541,-0.059,1.021,0.534,0.891,0.41,1.376,0.89,161.0,550.0
2015-01-27,Mazatlan,Mexico,-106.4167,23.2001,[-106.9167 22.7001 -105.9167 23.7001],0.568,0.032,0.971,0.567,0.841,0.353,1.32,0.833,187.0,548.0
2015-01-28,Mazatlan,Mexico,-106.4167,23.2001,[-106.9167 22.7001 -105.9167 23.7001],0.571,0.025,1.001,0.595,0.823,0.342,1.284,0.818,176.0,565.0
2015-01-29,Mazatlan,Mexico,-106.4167,23.2001,[-106.9167 22.7001 -105.9167 23.7001],0.545,0.063,0.955,0.566,0.809,0.295,1.281,0.795,174.0,561.0
2015-01-30,Mazatlan,Mexico,-106.4167,23.2001,[-106.9167 22.7001 -105.9167 23.7001],0.565,0.063,0.971,0.577,0.781,0.278,1.271,0.786,202.0,564.0
2015-01-31,Mazatlan,Mexico,-106.4167,23.2001,[-106.9167 22.7001 -105.9167 23.7001],0.594,0.132,0.979,0.612,0.767,0.233,1.255,0.767,179.0,567.0
2015-02-01,Mazatlan,Mexico,-106.4167,23.2001,[-106.9167 22.7001 -105.9167 23.7001],0.628,0.235,1.001,0.629,0.769,0.275,1.229,0.759,202.0,550.0
2015-02-02,Mazatlan,Mexico,-106.4167,23.2001,[-106.9167 22.7001 -105.9167 23.7001],0.628,0.235,1.001,0.629,0.748,0.259,1.201,0.739,202.0,563.0
2015-02-03,Mazatlan,Mexico,-106.4167,23.2001,[-106.9167 22.7001 -105.9167 23.7001],0.594,0.257,0.966,0.609,0.716,0.277,1.209,0.723,231.0,544.0
2015-02-04,Mazatlan,Mexico,-106.4167,23.2001,[-106.9167 22.7001 -105.9167 23.7001],0.568,0.257,0.934,0.605,0.745,0.294,1.197,0.746,202.0,563.0
2015-02-05,Mazatlan,Mexico,-106.4167,23.2001,[-106.9167 22.7001 -105.9167 23.7001],0.545,0.257,0.916,0.565,0.705,0.268,1.183,0.719,175.0,554.0
2015-02-06,Mazatlan,Mexico,-106.4167,23.2001,[-106.9167 22.7001 -105.9167 23.7001],0.545,0.257,0.916,0.565,0.702,0.29,1.173,0.724,175.0,569.0
2015-02-07,Mazatlan,Mexico,-106.4167,23.2001,[-106.9167 22.7001 -105.9167 23.7001],0.545,0.257,0.916,0.565,0.694,0.26,1.159,0.707,175.0,566.0
2015-02-08,Mazatlan,Mexico,-106.4167,23.2001,[-106.9167 22.7001 -105.9167 23.7001],0.545,0.235,0.93,0.572,0.693,0.277,1.154,0.705,188.0,556.0
2015-02-09,Mazatlan,Mexico,-106.4167,23.2001,[-106.9167 22.7001 -105.9167 23.7001],0.578,0.257,0.936,0.609,0.712,0.272,1.154,0.709,180.0,570.0
2015-02-10,Mazatlan,Mexico,-106.4167,23.2001,[-106.9167 22.7001 -105.9167 23.7001],0.578,0.257,0.936,0.609,0.734,0.323,1.166,0.735,180.0,518.0
2015-02-11,Mazatlan,Mexico,-106.4167,23.2001,[-106.9167 22.7001 -105.9167 23.7001],0.578,0.293,0.966,0.624,0.749,0.353,1.191,0.759,140.0,524.0
2015-02-12,Mazatlan,Mexico,-106.4167,23.2001,[-106.9167 22.7001 -105.9167 23.7001],0.69,0.293,0.993,0.656,0.745,0.336,1.186,0.745,166.0,520.0
2015-02-13,Mazatlan,Mexico,-106.4167,23.2001,[-106.9167 22.7001 -105.9167 23.7001],0.721,0.348,1.005,0.688,0.744,0.344,1.163,0.742,155.0,538.0
2015-02-14,Mazatlan,Mexico,-106.4167,23.2001,[-106.9167 22.7001 -105.9167 23.7001],0.69,0.257,0.993,0.644,0.743,0.322,1.198,0.744,150.0,527.0
2015-02-15,Mazatlan,Mexico,-106.4167,23.2001,[-106.9167 22.7001 -105.9167 23.7001],0.69,0.257,0.996,0.656,0.733,0.313,1.146,0.733,174.0,530.0
2015-02-16,Mazatlan,Mexico,-106.4167,23.2001,[-106.9167 22.7001 -105.9167 23.7001],0.6,0.234,0.993,0.643,0.71,0.31,1.152,0.729,151.0,533.0
2015-02-17,Mazatlan,Mexico,-106.4167,23.2001,[-106.9167 22.7001 -105.9167 23.7001],0.578,0.205,0.968,0.613,0.726,0.291,1.153,0.73,175.0,517.0
2015-02-18,Mazatlan,Mexico,-106.4167,23.2001,[-106.9167 22.7001 -105.9167 23.7001],0.603,0.191,0.996,0.642,0.726,0.295,1.154,0.724,146.0,530.0
2015-02-19,Mazatlan,Mexico,-106.4167,23.2001,[-106.9167 22.7001 -105.9167 23.7001],0.578,0.191,0.942,0.589,0.726,0.28,1.139,0.709,178.0,513.0
2015-02-20,Mazatlan,Mexico,-106.4167,23.2001,[-106.9167 22.7001 -105.9167 23.7001],0.578,0.191,0.942,0.582,0.718,0.295,1.124,0.712,171.0,533.0
2015-02-21,Mazatlan,Mexico,-106.4167,23.2001,[-106.9167 22.7001 -105.9167 23.7001],0.578,0.183,0.942,0.583,0.707,0.271,1.117,0.699,199.0,524.0
2015-02-22,Mazatlan,Mexico,-106.4167,23.2001,[-106.9167 22.7001 -105.9167 23.7001],0.576,0.171,0.942,0.58,0.711,0.282,1.1,0.706,230.0,538.0
2015-02-23,Mazatlan,Mexico,-106.4167,23.2001,[-106.9167 22.7001 -105.9167 23.7001],0.578,0.191,0.942,0.574,0.727,0.297,1.091,0.703,217.0,531.0
2015-02-24,Mazatlan,Mexico,-106.4167,23.2001,[-106.9167 22.7001 -105.9167 23.7001],0.576,0.155,0.942,0.562,0.717,0.31,1.082,0.702,243.0,520.0
2015-02-25,Mazatlan,Mexico,-106.4167,23.2001,[-106.9167 22.7001 -105.9167 23.7001],0.576,0.155,0.942,0.562,0.709,0.295,1.103,0.703,243.0,560.0
2015-02-26,Mazatlan,Mexico,-106.4167,23.2001,[-106.9167 22.7001 -105.9167 23.7001],0.571,0.161,0.908,0.554,0.714,0.306,1.06,0.694,263.0,537.0
2015-02-27,Mazatlan,Mexico,-106.4167,23.2001,[-106.9167 22.7001 -105.9167 23.7001],0.51,0.093,0.808,0.488,0.712,0.285,1.04,0.689,223.0,545.0
2015-02-28,Mazatlan,Mexico,-106.4167,23.2001,[-106.9167 22.7001 -105.9167 23.7001],0.521,0.108,0.808,0.486,0.699,0.283,1.032,0.677,211.0,541.0
2015-03-01,Mazatlan,Mexico,-106.4167,23.2001,[-106.9167 22.7001 -105.9167 23.7001],0.544,0.108,0.865,0.503,0.699,0.29,1.05,0.679,188.0,563.0
2015-03-02,Mazatlan,Mexico,-106.4167,23.2001,[-106.9167 22.7001 -105.9167 23.7001],0.51,0.116,0.816,0.513,0.702,0.272,1.077,0.698,186.0,558.0
2015-03-03,Mazatlan,Mexico,-106.4167,23.2001,[-106.9167 22.7001 -105.9167 23.7001],0.51,0.116,0.816,0.506,0.728,0.339,1.128,0.743,215.0,563.0
2015-03-04,Mazatlan,Mexico,-106.4167,23.2001,[-106.9167 22.7001 -105.9167 23.7001],0.51,0.116,0.865,0.521,0.713,0.344,1.141,0.753,191.0,567.0
2015-03-05,Mazatlan,Mexico,-106.4167,23.2001,[-106.9167 22.7001 -105.9167 23.7001],0.482,0.089,0.808,0.457,0.712,0.342,1.125,0.736,215.0,551.0
2015-03-06,Mazatlan,Mexico,-106.4167,23.2001,[-106.9167 22.7001 -105.9167 23.7001],0.509,0.077,0.808,0.463,0.724,0.342,1.116,0.739,183.0,564.0
2015-03-07,Mazatlan,Mexico,-106.4167,23.2001,[-106.9167 22.7001 -105.9167 23.7001],0.589,0.142,1.269,0.66,0.747,0.373,1.201,0.79,205.0,546.0
2015-03-08,Mazatlan,Mexico,-106.4167,23.2001,[-106.9167 22.7001 -105.9167 23.7001],0.617,0.138,1.283,0.676,0.775,0.406,1.235,0.82,177.0,563.0
2015-03-09,Mazatlan,Mexico,-106.4167,23.2001,[-106.9167 22.7001 -105.9167 23.7001],0.717,0.186,1.375,0.771,0.791,0.377,1.279,0.823,163.0,553.0
2015-03-10,Mazatlan,Mexico,-106.4167,23.2001,[-106.9167 22.7001 -105.9167 23.7001],0.677,0.161,1.359,0.715,0.79,0.338,1.278,0.821,196.0,569.0
2015-03-11,Mazatlan,Mexico,-106.4167,23.2001,[-106.9167 22.7001 -105.9167 23.7001],0.689,0.163,1.359,0.719,0.805,0.336,1.311,0.826,181.0,565.0
2015-03-12,Mazatlan,Mexico,-106.4167,23.2001,[-106.9167 22.7001 -105.9167 23.7001],0.689,0.163,1.359,0.719,0.802,0.329,1.278,0.822,181.0,557.0
2015-03-13,Mazatlan,Mexico,-106.4167,23.2001,[-106.9167 22.7001 -105.9167 23.7001],0.694,0.176,1.444,0.753,0.807,0.349,1.32,0.847,164.0,569.0
2015-03-14,Mazatlan,Mexico,-106.4167,23.2001,[-106.9167 22.7001 -105.9167 23.7001],0.694,0.176,1.444,0.753,0.844,0.367,1.359,0.863,164.0,518.0
2015-03-15,Mazatlan,Mexico,-106.4167,23.2001,[-106.9167 22.7001 -105.9167 23.7001],0.717,0.186,1.444,0.755,0.855,0.41,1.348,0.872,161.0,525.0
2015-03-16,Mazatlan,Mexico,-106.4167,23.2001,[-106.9167 22.7001 -105.9167 23.7001],0.887,0.34,1.375,0.818,0.878,0.407,1.34,0.884,201.0,521.0
2015-03-17,Mazatlan,Mexico,-106.4167,23.2001,[-106.9167 22.7001 -105.9167 23.7001],0.897,0.339,1.375,0.816,0.86,0.412,1.291,0.86,216.0,539.0
2015-03-18,Mazatlan,Mexico,-106.4167,23.2001,[-106.9167 22.7001 -105.9167 23.7001],0.897,0.339,1.375,0.838,0.828,0.385,1.248,0.821,210.0,531.0
2015-03-19,Mazatlan,Mexico,-106.4167,23.2001,[-106.9167 22.7001 -105.9167 23.7001],0.798,0.317,1.356,0.789,0.801,0.374,1.243,0.804,237.0,532.0
2015-03-20,Mazatlan,Mexico,-106.4167,23.2001,[-106.9167 22.7001 -105.9167 23.7001],0.902,0.365,1.359,0.867,0.816,0.405,1.242,0.824,240.0,530.0
2015-03-21,Mazatlan,Mexico,-106.4167,23.2001,[-106.9167 22.7001 -105.9167 23.7001],0.852,0.35,1.312,0.84,0.818,0.419,1.23,0.825,265.0,515.0
2015-03-22,Mazatlan,Mexico,-106.4167,23.2001,[-106.9167 22.7001 -105.9167 23.7001],0.724,0.311,1.17,0.72,0.777,0.381,1.193,0.78,243.0,529.0
2015-03-23,Mazatlan,Mexico,-106.4167,23.2001,[-106.9167 22.7001 -105.9167 23.7001],0.707,0.311,1.113,0.693,0.757,0.356,1.161,0.754,273.0,513.0
2015-03-24,Mazatlan,Mexico,-106.4167,23.2001,[-106.9167 22.7001 -105.9167 23.7001],0.669,0.279,1.028,0.637,0.777,0.371,1.173,0.765,256.0,533.0
2015-03-25,Mazatlan,Mexico,-106.4167,23.2001,[-106.9167 22.7001 -105.9167 23.7001],0.689,0.311,1.088,0.678,0.76,0.362,1.17,0.758,252.0,524.0
2015-03-26,Mazatlan,Mexico,-106.4167,23.2001,[-106.9167 22.7001 -105.9167 23.7001],0.689,0.315,1.083,0.68,0.739,0.33,1.147,0.732,272.0,540.0
2015-03-27,Mazatlan,Mexico,-106.4167,23.2001,[-106.9167 22.7001 -105.9167 23.7001],0.669,0.301,1.083,0.658,0.723,0.316,1.129,0.718,286.0,537.0
2015-03-28,Mazatlan,Mexico,-106.4167,23.2001,[-106.9167 22.7001 -105.9167 23.7001],0.669,0.279,1.041,0.645,0.693,0.286,1.094,0.685,306.0,527.0
2015-03-29,Mazatlan,Mexico,-106.4167,23.2001,[-106.9167 22.7001 -105.9167 23.7001],0.664,0.277,1.058,0.65,0.688,0.277,1.077,0.681,324.0,565.0
2015-03-30,Mazatlan,Mexico,-106.4167,23.2001,[-106.9167 22.7001 -105.9167 23.7001],0.678,0.287,1.088,0.669,0.659,0.244,1.067,0.655,345.0,541.0
2015-03-31,Mazatlan,Mexico,-106.4167,23.2001,[-106.9167 22.7001 -105.9167 23.7001],0.576,0.228,0.958,0.6,0.656,0.246,1.066,0.657,305.0,546.0
2015-04-01,Mazatlan,Mexico,-106.4167,23.2001,[-106.9167 22.7001 -105.9167 23.7001],0.578,0.228,0.952,0.589,0.65,0.252,1.085,0.661,269.0,543.0
2015-04-02,Mazatlan,Mexico,-106.4167,23.2001,[-106.9167 22.7001 -105.9167 23.7001],0.578,0.223,0.948,0.584,0.632,0.212,1.072,0.639,280.0,563.0
2015-04-03,Mazatlan,Mexico,-106.4167,23.2001,[-106.9167 22.7001 -105.9167 23.7001],0.624,0.238,0.962,0.613,0.619,0.2,1.045,0.628,271.0,554.0
2015-04-04,Mazatlan,Mexico,-106.4167,23.2001,[-106.9167 22.7001 -105.9167 23.7001],0.578,0.24,0.952,0.607,0.604,0.195,1.04,0.622,244.0,560.0
2015-04-05,Mazatlan,Mexico,-106.4167,23.2001,[-106.9167 22.7001 -105.9167 23.7001],0.589,0.24,0.962,0.612,0.576,0.161,1.016,0.599,246.0,559.0
2015-04-06,Mazatlan,Mexico,-106.4167,23.2001,[-106.9167 22.7001 -105.9167 23.7001],0.576,0.223,0.954,0.599,0.59,0.182,1.009,0.602,270.0,543.0
2015-04-07,Mazatlan,Mexico,-106.4167,23.2001,[-106.9167 22.7001 -105.9167 23.7001],0.542,0.171,1.038,0.604,0.576,0.155,1.019,0.591,240.0,554.0
2015-04-08,Mazatlan,Mexico,-106.4167,23.2001,[-106.9167 22.7001 -105.9167 23.7001],0.459,0.142,0.969,0.547,0.52,0.135,0.987,0.557,259.0,536.0
2015-04-09,Mazatlan,Mexico,-106.4167,23.2001,[-106.9167 22.7001 -105.9167 23.7001],0.451,0.118,0.954,0.521,0.544,0.159,0.984,0.566,230.0,558.0
2015-04-10,Mazatlan,Mexico,-106.4167,23.2001,[-106.9167 22.7001 -105.9167 23.7001],0.451,0.05,0.954,0.529,0.552,0.149,0.989,0.578,199.0,547.0
2015-04-11,Mazatlan,Mexico,-106.4167,23.2001,[-106.9167 22.7001 -105.9167 23.7001],0.447,0.118,0.954,0.541,0.556,0.154,1.001,0.582,218.0,559.0
2015-04-12,Mazatlan,Mexico,-106.4167,23.2001,[-106.9167 22.7001 -105.9167 23.7001],0.447,0.118,0.977,0.533,0.61,0.196,1.066,0.617,206.0,554.0
2015-04-13,Mazatlan,Mexico,-106.4167,23.2001,[-106.9167 22.7001 -105.9167 23.7001],0.419,-0.058,0.947,0.473,0.616,0.182,1.031,0.614,213.0,545.0
2015-04-14,Mazatlan,Mexico,-106.4167,23.2001,[-106.9167 22.7001 -105.9167 23.7001],0.319,-0.132,0.831,0.369,0.609,0.177,1.033,0.619,210.0,556.0
2015-04-15,Mazatlan,Mexico,-106.4167,23.2001,[-106.9167 22.7001 -105.9167 23.7001],0.319,-0.132,0.831,0.369,0.572,0.166,1.029,0.6,210.0,507.0
2015-04-16,Mazatlan,Mexico,-106.4167,23.2001,[-106.9167 22.7001 -105.9167 23.7001],0.319,-0.132,0.826,0.368,0.576,0.163,1.036,0.606,209.0,513.0
2015-04-17,Mazatlan,Mexico,-106.4167,23.2001,[-106.9167 22.7001 -105.9167 23.7001],0.305,-0.137,0.8,0.333,0.608,0.17,1.041,0.621,177.0,509.0
2015-04-18,Mazatlan,Mexico,-106.4167,23.2001,[-106.9167 22.7001 -105.9167 23.7001],0.279,-0.175,0.722,0.283,0.636,0.18,1.048,0.625,196.0,529.0
2015-04-19,Mazatlan,Mexico,-106.4167,23.2001,[-106.9167 22.7001 -105.9167 23.7001],0.259,-0.209,0.69,0.268,0.556,0.134,1.016,0.589,222.0,525.0
2015-04-20,Mazatlan,Mexico,-106.4167,23.2001,[-106.9167 22.7001 -105.9167 23.7001],0.226,-0.209,0.607,0.208,0.565,0.157,0.993,0.586,220.0,530.0
2015-04-21,Mazatlan,Mexico,-106.4167,23.2001,[-106.9167 22.7001 -105.9167 23.7001],0.19,-0.214,0.614,0.199,0.553,0.135,1.005,0.574,222.0,532.0
2015-04-22,Mazatlan,Mexico,-106.4167,23.2001,[-106.9167 22.7001 -105.9167 23.7001],0.245,-0.209,0.627,0.222,0.568,0.164,1.015,0.591,245.0,515.0
2015-04-23,Mazatlan,Mexico,-106.4167,23.2001,[-106.9167 22.7001 -105.9167 23.7001],0.23,-0.22,0.695,0.219,0.581,0.164,1.04,0.605,226.0,527.0
2015-04-24,Mazatlan,Mexico,-106.4167,23.2001,[-106.9167 22.7001 -105.9167 23.7001],0.336,-0.129,0.755,0.286,0.567,0.143,1.039,0.587,255.0,506.0
2015-04-25,Mazatlan,Mexico,-106.4167,23.2001,[-106.9167 22.7001 -105.9167 23.7001],0.336,-0.129,0.755,0.286,0.558,0.141,1.015,0.579,255.0,526.0
2015-04-26,Mazatlan,Mexico,-106.4167,23.2001,[-106.9167 22.7001 -105.9167 23.7001],0.278,-0.145,0.683,0.26,0.534,0.111,0.994,0.561,251.0,516.0
2015-04-27,Mazatlan,Mexico,-106.4167,23.2001,[-106.9167 22.7001 -105.9167 23.7001],0.31,-0.103,0.695,0.288,0.525,0.126,0.94,0.546,271.0,535.0
2015-04-28,Mazatlan,Mexico,-106.4167,23.2001,[-106.9167 22.7001 -105.9167 23.7001],0.336,-0.088,0.695,0.299,0.526,0.129,0.956,0.543,253.0,530.0
2015-04-29,Mazatlan,Mexico,-106.4167,23.2001,[-106.9167 22.7001 -105.9167 23.7001],0.337,-0.03,0.695,0.326,0.548,0.142,0.967,0.557,235.0,523.0
2015-04-30,Mazatlan,Mexico,-106.4167,23.2001,[-106.9167 22.7001 -105.9167 23.7001],0.337,-0.032,0.729,0.325,0.547,0.138,0.956,0.55,257.0,561.0
2015-05-01,Mazatlan,Mexico,-106.4167,23.2001,[-106.9167 22.7001 -105.9167 23.7001],0.337,-0.054,0.695,0.321,0.523,0.116,0.881,0.517,264.0,536.0
2015-05-02,Mazatlan,Mexico,-106.4167,23.2001,[-106.9167 22.7001 -105.9167 23.7001],0.337,-0.032,0.707,0.322,0.526,0.137,0.895,0.527,262.0,542.0
2015-05-03,Mazatlan,Mexico,-106.4167,23.2001,[-106.9167 22.7001 -105.9167 23.7001],0.447,0.054,0.794,0.404,0.547,0.165,0.897,0.541,257.0,539.0
2015-05-04,Mazatlan,Mexico,-106.4167,23.2001,[-106.9167 22.7001 -105.9167 23.7001],0.463,0.115,0.794,0.42,0.562,0.162,0.908,0.55,248.0,558.0
2015-05-05,Mazatlan,Mexico,-106.4167,23.2001,[-106.9167 22.7001 -105.9167 23.7001],0.477,0.169,0.794,0.449,0.546,0.168,0.903,0.548,223.0,550.0
2015-05-06,Mazatlan,Mexico,-106.4167,23.2001,[-106.9167 22.7001 -105.9167 23.7001],0.477,0.176,0.794,0.456,0.563,0.199,0.905,0.56,225.0,555.0
2015-05-07,Mazatlan,Mexico,-106.4167,23.2001,[-106.9167 22.7001 -105.9167 23.7001],0.475,0.156,0.794,0.458,0.552,0.195,0.884,0.548,211.0,564.0
2015-05-08,Mazatlan,Mexico,-106.4167,23.2001,[-106.9167 22.7001 -105.9167 23.7001],0.458,0.12,0.794,0.433,0.545,0.197,0.88,0.549,215.0,547.0
2015-05-09,Mazatlan,Mexico,-106.4167,23.2001,[-106.9167 22.7001 -105.9167 23.7001],0.447,0.026,0.828,0.412,0.545,0.185,0.891,0.549,186.0,561.0
2015-05-10,Mazatlan,Mexico,-106.4167,23.2001,[-106.9167 22.7001 -105.9167 23.7001],0.447,0.012,0.794,0.406,0.547,0.168,0.9,0.547,215.0,542.0
2015-05-11,Mazatlan,Mexico,-106.4167,23.2001,[-106.9167 22.7001 -105.9167 23.7001],0.491,0.131,0.86,0.457,0.557,0.197,0.91,0.56,186.0,561.0
2015-05-12,Mazatlan,Mexico,-106.4167,23.2001,[-106.9167 22.7001 -105.9167 23.7001],0.566,0.206,0.953,0.555,0.563,0.2,0.913,0.562,183.0,549.0
2015-05-13,Mazatlan,Mexico,-106.4167,23.2001,[-106.9167 22.7001 -105.9167 23.7001],0.566,0.206,0.948,0.563,0.546,0.197,0.889,0.554,199.0,568.0
2015-05-14,Mazatlan,Mexico,-106.4167,23.2001,[-106.9167 22.7001 -105.9167 23.7001],0.549,0.206,0.948,0.562,0.538,0.196,0.879,0.55,208.0,561.0
2015-05-15,Mazatlan,Mexico,-106.4167,23.2001,[-106.9167 22.7001 -105.9167 23.7001],0.566,0.206,0.941,0.557,0.541,0.208,0.89,0.553,211.0,554.0
2015-05-16,Mazatlan,Mexico,-106.4167,23.2001,[-106.9167 22.7001 -105.9167 23.7001],0.587,0.215,0.953,0.597,0.552,0.209,0.902,0.565,227.0,567.0
2015-05-17,Mazatlan,Mexico,-106.4167,23.2001,[-106.9167 22.7001 -105.9167 23.7001],0.587,0.215,0.953,0.597,0.554,0.209,0.923,0.569,227.0,517.0
2015-05-18,Mazatlan,Mexico,-106.4167,23.2001,[-106.9167 22.7001 -105.9167 23.7001],0.54,0.163,0.948,0.56,0.545,0.187,0.926,0.562,195.0,525.0
2015-05-19,Mazatlan,Mexico,-106.4167,23.2001,[-106.9167 22.7001 -105.9167 23.7001],0.618,0.302,0.993,0.636,0.571,0.221,0.94,0.582,218.0,519.0
2015-05-20,Mazatlan,Mexico,-106.4167,23.2001,[-106.9167 22.7001 -105.9167 23.7001],0.587,0.277,0.993,0.629,0.561,0.215,0.935,0.577,254.0,540.0
2015-05-21,Mazatlan,Mexico,-106.4167,23.2001,[-106.9167 22.7001 -105.9167 23.7001],0.626,0.28,1.049,0.652,0.555,0.214,0.933,0.576,251.0,532.0
2015-05-22,Mazatlan,Mexico,-106.4167,23.2001,[-106.9167 22.7001 -105.9167 23.7001],0.637,0.302,1.049,0.662,0.573,0.23,0.942,0.587,270.0,532.0
2015-05-23,Mazatlan,Mexico,-106.4167,23.2001,[-106.9167 22.7001 -105.9167 23.7001],0.673,0.324,1.049,0.709,0.582,0.23,0.95,0.594,292.0,536.0
2015-05-24,Mazatlan,Mexico,-106.4167,23.2001,[-106.9167 22.7001 -105.9167 23.7001],0.69,0.341,1.049,0.72,0.594,0.249,0.951,0.609,314.0,517.0
2015-05-25,Mazatlan,Mexico,-106.4167,23.2001,[-106.9167 22.7001 -105.9167 23.7001],0.758,0.433,1.16,0.782,0.608,0.284,0.963,0.619,285.0,530.0
2015-05-26,Mazatlan,Mexico,-106.4167,23.2001,[-106.9167 22.7001 -105.9167 23.7001],0.761,0.433,1.17,0.781,0.602,0.286,0.964,0.619,288.0,514.0
2015-05-27,Mazatlan,Mexico,-106.4167,23.2001,[-106.9167 22.7001 -105.9167 23.7001],0.75,0.377,1.073,0.74,0.626,0.284,0.951,0.624,260.0,533.0
2015-05-28,Mazatlan,Mexico,-106.4167,23.2001,[-106.9167 22.7001 -105.9167 23.7001],0.779,0.433,1.049,0.765,0.66,0.309,0.965,0.647,261.0,522.0
2015-05-29,Mazatlan,Mexico,-106.4167,23.2001,[-106.9167 22.7001 -105.9167 23.7001],0.806,0.437,1.089,0.785,0.671,0.321,1.013,0.671,286.0,540.0
2015-05-30,Mazatlan,Mexico,-106.4167,23.2001,[-106.9167 22.7001 -105.9167 23.7001],0.84,0.447,1.16,0.833,0.674,0.34,1.027,0.679,266.0,533.0
2015-05-31,Mazatlan,Mexico,-106.4167,23.2001,[-106.9167 22.7001 -105.9167 23.7001],0.838,0.439,1.11,0.819,0.674,0.356,0.995,0.681,263.0,525.0
2015-06-01,Mazatlan,Mexico,-106.4167,23.2001,[-106.9167 22.7001 -105.9167 23.7001],0.832,0.437,1.104,0.81,0.666,0.35,0.973,0.675,284.0,563.0
2015-06-02,Mazatlan,Mexico,-106.4167,23.2001,[-106.9167 22.7001 -105.9167 23.7001],0.777,0.35,1.07,0.765,0.683,0.363,1.024,0.715,296.0,539.0
2015-06-03,Mazatlan,Mexico,-106.4167,23.2001,[-106.9167 22.7001 -105.9167 23.7001],0.777,0.3,1.089,0.754,0.685,0.346,1.05,0.723,256.0,546.0
2015-06-04,Mazatlan,Mexico,-106.4167,23.2001,[-106.9167 22.7001 -105.9167 23.7001],0.809,0.358,1.041,0.78,0.72,0.384,1.05,0.751,241.0,542.0
2015-06-05,Mazatlan,Mexico,-106.4167,23.2001,[-106.9167 22.7001 -105.9167 23.7001],0.779,0.393,1.024,0.782,0.731,0.413,1.071,0.771,244.0,559.0
2015-06-06,Mazatlan,Mexico,-106.4167,23.2001,[-106.9167 22.7001 -105.9167 23.7001],0.828,0.448,1.089,0.849,0.737,0.425,1.078,0.785,235.0,552.0
2015-06-07,Mazatlan,Mexico,-106.4167,23.2001,[-106.9167 22.7001 -105.9167 23.7001],0.806,0.402,1.041,0.823,0.737,0.427,1.062,0.788,234.0,556.0
2015-06-08,Mazatlan,Mexico,-106.4167,23.2001,[-106.9167 22.7001 -105.9167 23.7001],0.809,0.413,1.075,0.827,0.769,0.45,1.103,0.813,237.0,561.0
2015-06-09,Mazatlan,Mexico,-106.4167,23.2001,[-106.9167 22.7001 -105.9167 23.7001],0.793,0.402,1.089,0.813,0.746,0.415,1.112,0.793,253.0,546.0
2015-06-10,Mazatlan,Mexico,-106.4167,23.2001,[-106.9167 22.7001 -105.9167 23.7001],0.779,0.402,1.089,0.816,0.752,0.419,1.123,0.799,250.0,556.0
2015-06-11,Mazatlan,Mexico,-106.4167,23.2001,[-106.9167 22.7001 -105.9167 23.7001],0.679,0.351,1.022,0.752,0.734,0.422,1.125,0.797,275.0,539.0
2015-06-12,Mazatlan,Mexico,-106.4167,23.2001,[-106.9167 22.7001 -105.9167 23.7001],0.663,0.35,1.006,0.744,0.719,0.421,1.089,0.782,251.0,557.0
2015-06-13,Mazatlan,Mexico,-106.4167,23.2001,[-106.9167 22.7001 -105.9167 23.7001],0.663,0.351,0.962,0.72,0.718,0.407,1.068,0.773,235.0,548.0
2015-06-14,Mazatlan,Mexico,-106.4167,23.2001,[-106.9167 22.7001 -105.9167 23.7001],0.653,0.35,0.914,0.688,0.723,0.414,1.05,0.787,263.0,565.0